Location: Eurasberg
(48.3353°N, 11.0839°E)
Time: 13:52:46
(UTC+00:00)

Timation 1 Rocket - Pass Details

Date: 19 April 2026
Orbit: 895 x 908 km, 70.0° (Epoch: 14 May)

Event Time Altitude Azimuth Distance (km) Brightness Sun altitude
Exits shadow 01:14:55 38° 274° (W) 1,351 5.0 -24.9°
Maximum altitude 01:16:19 45° 309° (NW) 1,230 5.0 -24.8°
Drops below altitude 10° 01:22:04 10° 21° (NNE) 2,603 7.8 -24.2°
Sets 01:24:42 0° 28° (NNE) 3,548 8.8 -24.0°
